Tracking 17780 objects as of 28-July-2016
HD Live streaming from Space Station
objects crossing your sky now

CRRES DEB (CANISTER)

Track CRRES DEB (CANISTER) now!


NORAD ID: 27051
Int'l Code: 1990-065U
Perigee: 299.3 km
Apogee: 30,278.4 km
Inclination: 18.3 °
Period: 528.7 minutes
Semi major axis: 21659 km
RCS: 0.1304 m2 (medium)
Launch date: July 25, 1990
Source: United States (US)
Launch site: AIR FORCE EASTERN TEST RANGE (AFETR)

Note: This is SATELLITE DEBRIS
Your satellite tracking list
Your tracking list is empty





NASA's NSSDC Master Catalog

Two Line Element Set (TLE):
1 27051U 90065U   16207.00987550  .00001028  00000-0  50370-3 0  9994
2 27051  18.2672  25.0713 6920444 288.4927  11.8370  2.72346039160430
Source of the keplerian elements: AFSPC

N2YO: 1289